Regional Weather Roundup
Issued by NWS Jackson, KY

Home | Current Version | Previous Version | Text Only | Print | Product List | Glossary Off
Versions: 1 2 3 4 5 6 7 8 9 10 11 12 13 14 15 16 17 18 19 20 21 22 23 24 25 26 27 28 29 30 31 32 33 34 35 36 37 38 39 40 41 42 43 44 45 46 47 48 49 50

000
ASUS43 KJKL 210305
RWRJKL

EAST KENTUCKY HOURLY WEATHER ROUNDUP
NATIONAL WEATHER SERVICE JACKSON KY
1000 PM EST SAT DEC 20 2014

NOTE: "FAIR" INDICATES FEW OR NO CLOUDS BELOW 12,000 FEET WITH
NO SIGNIFICANT WEATHER AND/OR OBSTRUCTIONS TO VISIBILITY.

* THESE REPORTS ARE NOT UNDER NWS QUALITY CONTROL AND MAY NOT
  REPORT WEATHER SUCH AS PRECIPITATION AND FOG.

KYZ079-080-083-085-087-088-110-112-115-119-120-210400
...EASTERN KENTUCKY...

CITY           SKY/WX    TMP DP  RH WIND       PRES   REMARKS
JACKSON        PTCLDY    30  23  75 NE3       30.25S
LONDON         CLEAR     31  24  75 CALM      30.25F
SOMERSET*      CLEAR     30  25  80 CALM      30.28S
MONTICELLO*    CLEAR     28  24  85 CALM      30.29S
MIDDLESBORO*   CLEAR     32  29  89 CALM      30.26R
HARLAN APT*    CLEAR     34  28  80 CALM      30.23S
BLACK MTN*       N/A     30  27  86 NW1         N/A
PIKEVILLE APT* CLOUDY    32  27  80 N3        30.24R
BIG SANDY*     CLOUDY    33  27  80 N3        30.26S
MOREHEAD APT*  CLOUDY    32  27  80 CALM      30.30S
$$

KYZ035-036-041-042-044-050-067-078-099-210400
...CENTRAL KENTUCKY...

CITY           SKY/WX    TMP DP  RH WIND       PRES   REMARKS
MT STERLING*   CLOUDY    32  28  86 E3        30.29S
FLEMING/MASON* CLOUDY    31  27  85 CALM      30.29F
DANVILLE*      CLEAR     25  23  93 CALM      30.29S
RICHMOND*      CLEAR     27  25  93 CALM      30.27F
LEXINGTON      CLEAR     28  25  88 CALM      30.27F
FRANKFORT      CLEAR     27  23  85 CALM      30.28S
$$

KYZ091>093-OHZ055-061-077-WVZ005-015-034-035-042-210400
...SOUTHERN OHIO/WEST VIRGINIA...

CITY           SKY/WX    TMP DP  RH WIND       PRES   REMARKS
COVINGTON      CLOUDY    32  24  72 CALM      30.28F HAZE
COLUMBUS       CLOUDY    30  24  78 CALM      30.29S
DAYTON         MOCLDY    30  23  75 CALM      30.28F
WILMINGTON     CLOUDY    29  24  82 CALM      30.28S HAZE
HUNTINGTON     CLOUDY    32  26  78 NE3       30.27S
CHARLESTON     CLOUDY    34  25  69 CALM      30.26S
PINEVILLE*     CLOUDY    35  34  96 MISG      30.27S
BECKLEY        CLOUDY    32  25  75 CALM      30.19S
BLUEFIELD      LGT SNOW  34  30  85 W5        30.19R FOG     WCI  30
$$

VAZ002-007-008-TNZ017-027-036-066-071-210400
...SOUTHWEST VIRGINIA/EAST TENNESSEE...

CITY           SKY/WX    TMP DP  RH WIND       PRES   REMARKS
WISE*          CLOUDY    34  30  86 CALM      30.20S
JONESVILLE*    MOCLDY    37  32  81 CALM      30.25S
ABINGDON*      CLOUDY    40  38  95 W3        30.21R FOG
BRISTOL        CLOUDY    40  38  93 SW3       30.23S
KNOXVILLE      CLOUDY    41  35  79 NE5       30.23S
OAK RIDGE      PTCLDY    36  32  85 CALM      30.25F
CROSSVILLE     CLEAR     35  25  66 N5        30.22R WCI  31
NASHVILLE      PTCLDY    34  27  75 CALM      30.27S
$$

...KEY TO REMARKS...
VSB - VISIBILITY IN MILES
WCI - WIND CHILL INDEX
HX  - HEAT INDEX

$$


USA.gov is the U.S. government's official web portal to all federal, state and local government web resources and services.